This demonstration page uses our WeatherBlox Daily Observations layout. Learn more.

Hourly Observations for December 10, 2017

Temp ( °F °C ) Dew Point ( °F °C ) Humidity (%) Winds ( mph kmh ) Pressure ( in mb ) Visibility ( mi km ) Precip ( " mm )
12:15 am 00:15 Clear 40 4.5 17 -8.5 39 39 WNW 10 17 30.18 1022 10 16.09344 0 0
12:35 am 00:35 Clear 38 3.4 16 -8.8 41 41 W 10 17 30.21 1023 10 16.09344 0 0
12:55 am 00:55 Clear 38 3.6 16 -8.7 41 41 W 10 17 30.21 1023 10 16.09344 0 0
1:15 am 01:15 Clear 39 3.7 17 -8.6 41 41 W 12 19 30.21 1023 10 16.09344 0 0
1:35 am 01:35 Clear 39 4.1 17 -8.5 40 40 W 9 15 30.18 1022 10 16.09344 0 0
1:55 am 01:55 Clear 37 3 16 -8.8 42 42 W 12 19 30.21 1023 10 16.09344 0 0
2:15 am 02:15 Clear 38 3.2 17 -8.6 42 42 WNW 10 17 30.21 1023 10 16.09344 0 0
2:35 am 02:35 Clear 38 3.6 17 -8.5 41 41 WNW 10 17 30.21 1023 10 16.09344 0 0
2:55 am 02:55 Clear 40 4.6 17 -8.3 39 39 WNW 13 20 30.18 1022 10 16.09344 0 0
3:15 am 03:15 Clear 39 3.8 17 -8.6 40 40 WNW 10 17 30.21 1023 10 16.09344 0 0
3:35 am 03:35 Clear 38 3.6 17 -8.6 41 41 W 13 20 30.21 1023 10 16.09344 0 0
3:55 am 03:55 Clear 37 2.6 16 -9 42 42 W 9 15 30.21 1023 10 16.09344 0 0
4:15 am 04:15 Clear 35 1.6 16 -9 46 46 W 10 17 30.21 1023 10 16.09344 0 0
4:35 am 04:35 Clear 35 1.7 16 -9 45 45 W 10 17 30.21 1023 10 16.09344 0 0
4:55 am 04:55 Clear 34 1 16 -9.1 47 47 W 9 15 30.21 1023 10 16.09344 0 0
5:15 am 05:15 Clear 33 0.3 15 -9.3 49 49 W 7 11 30.27 1025 10 16.09344 0 0
5:35 am 05:35 Clear 32 -0.2 15 -9.4 50 50 W 7 11 30.27 1025 10 16.09344 0 0
5:55 am 05:55 Clear 31 -0.4 15 -9.4 51 51 W 8 13 30.27 1025 10 16.09344 0 0
6:15 am 06:15 Clear 32 0 16 -8.9 52 52 W 9 15 30.27 1025 10 16.09344 0 0
6:35 am 06:35 Clear 35 1.5 15 -9.2 45 45 WNW 10 17 30.24 1024 10 16.09344 0 0
6:55 am 06:55 Clear 37 3 15 -9.3 40 40 WNW 12 19 30.27 1025 10 16.09344 0 0
7:15 am 07:15 Clear 39 4.1 16 -8.9 39 39 WNW 14 22 30.27 1025 10 16.09344 0 0
7:35 am 07:35 Clear 39 3.7 16 -8.9 40 40 NW 13 20 30.27 1025 10 16.09344 0 0
7:55 am 07:55 Sunny 41 5.1 16 -9 36 36 WNW 16 26 30.24 1024 10 16.09344 0 0
8:15 am 08:15 Sunny 41 4.8 16 -9.1 36 36 WNW 13 20 30.24 1024 10 16.09344 0 0
8:35 am 08:35 Sunny 41 5 16 -9 36 36 WNW 10 17 30.24 1024 10 16.09344 0 0
8:55 am 08:55 Sunny 41 4.9 16 -8.7 37 37 W 9 15 30.24 1024 10 16.09344 0 0
9:15 am 09:15 Sunny 41 5 17 -8.4 38 38 W 10 17 30.24 1024 10 16.09344 0 0
9:35 am 09:35 Sunny 43 6.2 18 -8 36 36 W 12 19 30.24 1024 10 16.09344 0 0
9:55 am 09:55 Sunny 47 8.1 19 -7.2 33 33 WNW 8 13 30.21 1023 10 16.09344 0 0
10:15 am 10:15 Sunny 51 10.5 18 -7.8 27 27 WNW 15 24 30.24 1024 10 16.09344 0 0
10:35 am 10:35 Sunny 53 11.7 18 -7.9 25 25 NW 15 24 30.21 1023 10 16.09344 0 0
10:55 am 10:55 Sunny 55 12.5 18 -8 23 23 WNW 12 19 30.21 1023 10 16.09344 0 0
11:15 am 11:15 Sunny 56 13.1 18 -8 22 22 WNW 14 22 30.21 1023 10 16.09344 0 0
11:35 am 11:35 Sunny 57 14 18 -7.9 21 21 WNW 15 24 30.21 1023 10 16.09344 0 0
11:55 am 11:55 Sunny 58 14.3 18 -7.8 21 21 WNW 16 26 30.15 1021 10 16.09344 0 0
12:15 pm 12:15 Sunny 59 14.9 18 -7.8 20 20 NW 15 24 30.15 1021 10 16.09344 0 0
12:35 pm 12:35 Sunny 60 15.5 18 -7.6 20 20 WNW 13 20 30.15 1021 10 16.09344 0 0
12:55 pm 12:55 Sunny 60 15.8 19 -7.4 20 20 WNW 13 20 30.15 1021 10 16.09344 0 0
1:15 pm 13:15 Sunny 62 16.4 19 -7.4 19 19 WNW 14 22 30.15 1021 10 16.09344 0 0
1:35 pm 13:35 Sunny 62 16.5 19 -7.5 19 19 WNW 15 24 30.15 1021 10 16.09344 0 0
1:55 pm 13:55 Sunny 63 17.2 20 -6.9 19 19 WNW 15 24 30.12 1020 10 16.09344 0 0
2:15 pm 14:15 Sunny 64 17.6 20 -6.7 19 19 WNW 13 20 30.09 1019 10 16.09344 0 0
2:35 pm 14:35 Sunny 65 18.2 20 -6.6 18 18 WNW 16 26 30.09 1019 10 16.09344 0 0
2:55 pm 14:55 Sunny 64 17.8 20 -6.9 18 18 WNW 15 24 30.09 1019 10 16.09344 0 0
3:15 pm 15:15 Sunny 63 17.1 19 -7 19 19 W 12 19 30.12 1020 10 16.09344 0 0
3:35 pm 15:35 Sunny 64 17.9 20 -6.5 18 18 WNW 8 13 30.09 1019 10 16.09344 0 0
3:55 pm 15:55 Sunny 64 17.6 20 -6.7 19 19 W 10 17 30.09 1019 10 16.09344 0 0
4:15 pm 16:15 Sunny 62 16.9 20 -6.7 19 19 W 7 11 30.12 1020 10 16.09344 0 0
4:35 pm 16:35 Sunny 60 15.5 19 -7.1 21 21 W 8 13 30.12 1020 10 16.09344 0 0
4:55 pm 16:55 Sunny 56 13.5 18 -7.9 22 22 W 9 15 30.15 1021 10 16.09344 0 0
5:15 pm 17:15 Clear 53 11.8 17 -8.3 24 24 W 10 17 30.15 1021 10 16.09344 0 0
5:35 pm 17:35 Clear 50 10.1 17 -8.5 26 26 W 9 15 30.18 1022 10 16.09344 0 0
5:55 pm 17:55 Clear 47 8.3 16 -9.1 28 28 W 9 15 30.18 1022 10 16.09344 0 0
6:15 pm 18:15 Clear 47 8.6 16 -9 28 28 W 10 17 30.18 1022 10 16.09344 0 0
6:35 pm 18:35 Clear 47 8.6 16 -8.9 28 28 W 10 17 30.18 1022 10 16.09344 0 0
6:55 pm 18:55 Clear 47 8.5 16 -9 28 28 W 10 17 30.15 1021 10 16.09344 0 0
7:15 pm 19:15 Clear 47 8.1 15 -9.2 29 29 W 12 19 30.15 1021 10 16.09344 0 0
7:35 pm 19:35 Clear 44 6.9 15 -9.5 30 30 W 10 17 30.18 1022 10 16.09344 0 0
7:55 pm 19:55 Clear 46 8 15 -9.5 28 28 W 10 17 30.15 1021 10 16.09344 0 0
8:15 pm 20:15 Clear 47 8.4 15 -9.7 27 27 W 12 19 30.15 1021 10 16.09344 0 0
8:35 pm 20:35 Clear 47 8.5 15 -9.6 27 27 W 13 20 30.15 1021 10 16.09344 0 0
8:55 pm 20:55 Clear 47 8.6 15 -9.7 27 27 W 9 15 30.15 1021 10 16.09344 0 0
9:15 pm 21:15 Clear 42 5.5 14 -10.2 32 32 W 10 17 30.18 1022 10 16.09344 0 0
9:35 pm 21:35 Clear 42 5.5 14 -10 32 32 W 10 17 30.18 1022 10 16.09344 0 0
9:55 pm 21:55 Clear 41 5 14 -10.2 33 33 W 10 17 30.18 1022 10 16.09344 0 0
10:15 pm 22:15 Clear 41 5.2 14 -10.2 32 32 W 12 19 30.18 1022 10 16.09344 0 0
10:35 pm 22:35 Clear 40 4.5 13 -10.5 33 33 W 10 17 30.18 1022 10 16.09344 0 0
10:55 pm 22:55 Clear 40 4.6 13 -10.4 33 33 W 12 19 30.18 1022 10 16.09344 0 0
11:15 pm 23:15 Clear 42 5.6 14 -10.2 31 31 W 13 20 30.18 1022 10 16.09344 0 0
11:35 pm 23:35 Clear 42 5.7 13 -10.3 31 31 W 13 20 30.18 1022 10 16.09344 0 0
11:55 pm 23:55 Clear 43 6 13 -10.5 30 30 W 15 24 30.18 1022 10 16.09344 0 0

Powered by AerisWeather